Location: Gerlach
(40.6516°N, 119.3568°W)
Time: 19:22:19
(UTC-08:00)

ISS - Visible Passes

Search period start: 30 November 2023 00:00
Search period end: 10 December 2023 00:00
Orbit: 416 x 417 km, 51.6° (Epoch: 30 November)

Date Brightness Start Highest point End Pass type
(mag) Time Alt. Az. Time Alt. Az. Time Alt. Az.
30 Nov -2.3 17:49:24 10° NNW 17:52:07 22° NNE 17:52:17 22° NNE visible
01 Dec -2.0 17:01:09 10° NNW 17:03:30 17° NNE 17:05:51 10° ENE visible
01 Dec -2.0 18:37:22 10° NW 18:39:03 27° NW 18:39:03 27° NW visible
02 Dec -3.3 17:49:00 10° NW 17:52:13 43° NNE 17:53:03 35° ENE visible
03 Dec -2.7 17:00:38 10° NW 17:03:37 29° NNE 17:06:35 10° E visible
03 Dec -2.4 18:37:15 10° WNW 18:40:11 38° SW 18:40:11 38° SW visible
04 Dec -3.6 17:48:35 10° WNW 17:51:56 71° SW 17:54:39 14° SE visible
05 Dec -3.8 17:00:01 10° NW 17:03:21 66° NE 17:06:40 10° ESE visible
05 Dec -0.7 18:37:54 10° W 18:39:42 14° SW 18:41:29 10° SSW visible
06 Dec -1.3 17:48:29 10° WNW 17:51:14 24° SW 17:53:59 10° S visible
07 Dec -2.4 16:59:29 10° WNW 17:02:41 42° SW 17:05:51 10° SSE visible
09 Dec -0.4 16:59:34 10° W 17:01:36 15° SW 17:03:38 10° SSW visible
